{"data":{"norad_id":48589,"epoch":"2026-09-19T20:15:55.435104Z","epoch_age_seconds":93970,"freshness":"FRESH","line1":"1 48589U 21041AN  26262.84439161  .00000009  00000+0  12050-4 0  9996","line2":"2 48589  53.1610 303.2227 0001409  83.6085 276.5077 15.31699896295024","mean_motion":15.31699896,"eccentricity":0.0001409,"inclination_deg":53.161,"raan_deg":303.2227,"arg_perigee_deg":83.6085,"mean_anomaly_deg":276.5077,"bstar":1.205e-5,"rev_number":29502,"period_min":94.013194344436,"perigee_km":469.77529843194,"apogee_km":471.70531205656,"semimajor_km":6848.8773052443,"source":"CELESTRAK","updated_at":"2026-09-20T09:00:39.137628Z"}}